[[{"header":{"parameterUnit":"m.s-1","parameterCategory":1,"la1":30.2992,"la2":30.254,"lo1":-89.0895,"lo2":-89.0443,"dy":0.0025,"dx":0.0025,"nx":19,"ny":19,"refTime":"2026-03-14T21:00:00:Z","depth":0,"parameterNumber":2,"parameterNumberName":"U-component_of_WINDS"},"data":[0,0,0,3.7288,3.7288,3.7288,3.7288,3.7298,3.7298,0,0,0,0,0,0,0,0,0,0,0,3.7295,3.7295,3.7288,3.7288,3.7288,3.7288,3.7298,3.7298,0,0,0,0,0,0,0,0,0,0,0,3.7295,3.7295,3.7295,3.7288,3.7288,3.7288,3.7298,3.7294,0,0,0,0,0,0,0,0,0,0,3.7293,3.7305,3.7295,3.7295,3.7289,3.7288,3.7288,3.7294,3.7294,3.7302,0,3.7312,0,3.7305,3.7299,3.7299,0,0,0,3.7283,3.7305,3.7299,3.7295,3.7289,3.7288,3.7287,3.7294,3.7295,3.7303,3.7312,3.7312,3.7305,3.7299,3.7299,3.7366,3.7367,0,0,3.7283,3.7298,3.7299,3.73,3.7301,3.7287,3.7287,3.7294,3.7304,3.7312,3.7312,3.7305,3.7299,3.73,3.7366,3.7366,0,0,0,3.7287,3.7298,3.7292,3.73,3.7299,3.7287,3.7287,3.7304,3.7301,3.7312,3.7306,3.73,3.73,3.7365,3.7366,3.7408,0,0,0,3.7287,3.73,3.7292,3.7301,3.7299,3.7301,3.7297,3.73,3.73,3.7306,3.73,3.73,3.7364,3.7365,3.7406,3.7425,0,0,0,3.7293,3.7301,3.7303,3.7302,3.7303,3.7301,3.7298,3.73,3.7297,3.7299,3.73,3.7364,3.7365,3.7403,3.7421,3.7447,0,0,0,3.7303,3.7339,3.7304,3.7343,3.7303,3.7328,3.7298,3.7315,3.7322,3.73,3.7364,3.7366,3.7403,3.7419,3.7445,3.7472,3.7484,0,0,3.7357,3.7346,3.7368,3.7336,3.7372,3.7327,3.7368,3.7359,3.7346,3.736,3.7361,3.7406,3.7421,3.7447,3.7551,3.7561,0,0,0,3.739,3.7406,3.7412,3.742,3.7417,3.7415,3.7399,3.7397,3.7409,3.7356,3.7423,3.7431,3.7446,3.7457,3.7466,3.7478,3.7372,3.7372,3.7372,3.7486,3.7468,3.7503,3.7487,3.7495,3.7481,3.7486,3.748,3.7457,3.7474,3.7477,3.7543,3.7558,3.7564,3.7577,3.7491,3.7491,3.7491,3.7491,3.7563,3.7583,3.7556,3.758,3.7562,3.7581,3.757,3.7554,3.757,3.7538,3.755,3.7517,3.7576,3.7586,3.7494,3.7494,3.7493,3.7493,3.7493,3.7623,3.763,3.7628,3.764,3.7652,3.7633,3.7651,3.7633,3.7616,3.7628,3.763,3.7629,3.7626,3.7631,3.7631,3.7631,3.7631,3.7631,3.7632,3.7686,3.7682,3.77,3.7701,3.7706,3.7709,3.7697,3.7701,3.77,3.7686,3.7685,3.7662,3.7586,3.7566,3.7635,3.7634,3.7634,3.7634,3.7633,3.7769,3.7748,3.7775,3.778,3.7781,3.7795,3.7773,3.7783,3.7783,3.7792,3.7768,3.7714,3.7701,3.7694,3.7678,3.7772,3.7772,3.7772,3.7772,3.7819,3.7812,3.7837,3.7846,3.7853,3.7837,3.7868,3.786,3.7848,3.7848,3.7832,3.7809,3.7803,3.7794,3.7785,3.7769,3.7884,3.7884,3.7884,3.787,3.7863,3.7893,3.7882,3.7883,3.7884,3.7913,3.7925,3.7907,3.7888,3.7847,3.7842,3.7806,3.7795,3.7773,3.7759,3.7731,0,0]},{"header":{"parameterUnit":"m.s-1","parameterCategory":1,"la1":30.2992,"la2":30.254,"lo1":-89.0895,"lo2":-89.0443,"dy":0.0025,"dx":0.0025,"nx":19,"ny":19,"refTime":"2026-03-14T21:00:00:Z","depth":0,"parameterNumber":3,"parameterNumberName":"V-component_of_WINDS"},"data":[0,0,0,-7.4583,-7.4586,-7.4761,-7.4761,-7.4985,-7.4987,0,0,0,0,0,0,0,0,0,0,0,-7.4533,-7.4534,-7.4582,-7.4587,-7.4761,-7.4761,-7.4984,-7.4987,0,0,0,0,0,0,0,0,0,0,0,-7.4532,-7.4534,-7.4536,-7.4587,-7.476,-7.4761,-7.4984,-7.4852,0,0,0,0,0,0,0,0,0,0,-7.4682,-7.4639,-7.4534,-7.4536,-7.4588,-7.476,-7.4761,-7.4845,-7.486,-7.4907,0,-7.495,0,-7.4972,-7.5002,-7.5003,0,0,0,-7.4584,-7.4627,-7.4672,-7.4536,-7.459,-7.476,-7.4681,-7.4854,-7.487,-7.4926,-7.4954,-7.4962,-7.4976,-7.5003,-7.5005,-7.5287,-7.5289,0,0,-7.4575,-7.4565,-7.4661,-7.4683,-7.4658,-7.4676,-7.4687,-7.4864,-7.4892,-7.4954,-7.4967,-7.498,-7.5005,-7.5007,-7.5286,-7.5288,0,0,0,-7.4549,-7.4558,-7.4599,-7.4674,-7.4705,-7.4681,-7.4694,-7.4884,-7.4898,-7.4969,-7.4982,-7.5006,-7.5009,-7.5285,-7.5287,-7.5349,0,0,0,-7.4543,-7.4543,-7.4595,-7.459,-7.4702,-7.4797,-7.471,-7.4886,-7.4906,-7.4981,-7.5006,-7.5011,-7.5283,-7.5286,-7.5344,-7.5379,0,0,0,-7.4521,-7.454,-7.4566,-7.459,-7.4664,-7.4795,-7.4819,-7.4891,-7.4915,-7.5003,-7.5012,-7.5282,-7.5285,-7.5339,-7.5372,-7.5452,0,0,0,-7.4493,-7.4616,-7.4567,-7.4709,-7.4663,-7.4832,-7.4818,-7.4944,-7.5027,-7.5008,-7.5283,-7.5287,-7.5338,-7.5367,-7.5447,-7.5518,-7.5547,0,0,-7.4643,-7.4634,-7.4719,-7.468,-7.4856,-7.4806,-7.4991,-7.5075,-7.5092,-7.5221,-7.5228,-7.5345,-7.5371,-7.5451,-7.571,-7.5733,0,0,0,-7.4762,-7.4823,-7.4872,-7.4953,-7.5022,-7.5085,-7.5143,-7.5175,-7.5286,-7.5157,-7.5396,-7.5412,-7.5459,-7.5494,-7.5513,-7.5555,-7.5302,-7.5302,-7.5301,-7.4957,-7.4975,-7.5117,-7.5156,-7.5234,-7.5295,-7.536,-7.5413,-7.5404,-7.5461,-7.5499,-7.5655,-7.5695,-7.5709,-7.5753,-7.5538,-7.5538,-7.5538,-7.5539,-7.5178,-7.5267,-7.5258,-7.5392,-7.541,-7.5522,-7.5586,-7.5578,-7.5685,-7.5626,-7.5669,-7.5604,-7.5734,-7.5772,-7.5543,-7.5543,-7.5542,-7.5541,-7.5541,-7.5307,-7.5354,-7.5393,-7.5513,-7.5604,-7.5639,-7.5744,-7.5755,-7.5766,-7.5808,-7.5851,-7.585,-7.5851,-7.5828,-7.5829,-7.5829,-7.583,-7.583,-7.583,-7.5427,-7.5469,-7.5557,-7.5644,-7.5699,-7.5772,-7.5837,-7.589,-7.5953,-7.5953,-7.5953,-7.594,-7.5743,-7.5694,-7.5839,-7.5837,-7.5836,-7.5835,-7.5835,-7.5644,-7.5598,-7.5733,-7.5789,-7.5894,-7.5984,-7.5999,-7.6108,-7.6154,-7.6206,-7.6185,-7.6038,-7.6028,-7.6013,-7.5972,-7.6181,-7.6181,-7.6181,-7.6181,-7.5754,-7.5752,-7.5895,-7.5983,-7.6071,-7.6099,-7.6252,-7.6304,-7.635,-7.638,-7.6352,-7.6298,-7.6282,-7.6283,-7.6262,-7.6224,-7.6491,-7.6492,-7.6492,-7.5889,-7.5896,-7.6025,-7.6072,-7.6156,-7.6227,-7.6372,-7.6473,-7.6515,-7.6505,-7.6404,-7.6391,-7.6305,-7.6276,-7.6262,-7.6229,-7.6159,0,0]}]]